sat.trackr.live / text

‹ back to catalog

STARLINK-11271 [DTC]

NORAD 60915 · 2024-154N

PAYLOAD ACTIVE UNKNOWN

§ Identity

Operator
Country
US
Launch date
2024-08-31
Launch site
AFETR
Launch vehicle
Mass (kg)
RCS (m²)

Purposes: comms

External: N2YO · Heavens-Above · Gunter

§ Orbital elements

Epoch: 2026-09-21T03:10:41.570976Z

Period
91.75 min
Inclination
53.1608°
Eccentricity
0.0002177
Mean motion
15.69565807 rev/d
Perigee alt
358.7 km
Apogee alt
361.6 km
Semi-major
6,738.3 km
B*
2.3147e-4
RAAN
247.5959°
Arg perigee
70.7773°
Mean anomaly
289.3480°
Rev number
11,920

§ Raw data

STARLINK-11271 [DTC]1 60915U 24154N   26264.13242559  .00027380  00000+0  23147-3 0  99972 60915  53.1608 247.5959 0002177  70.7773 289.3480 15.69565807119204

JSON: /api/v1/satellites/60915 · /tle

For live sub-satellite position, see the globe view (requires WebGL).

§ Visibility from observer

Set your observer location to see the next 7 days of passes ≥ 10°. The values pass through the URL so the page stays shareable.

No JS? Fill the form by hand. The geolocation button needs JavaScript.